User: anonymous   Login
Location: Newark
(35.9031°N, 139.7175°E)
Time: 18:53:11
(UTC+00:00)
Language:

A-11 Canister half - Orbit

View from above orbital plane
View from above orbital plane
View from above satellite
View from above satellite

Ground track
Ground track

The orbit data is extracted from the following two-line orbital elements,

1    53U 60009E   20158.42364788 -.00000030 +00000-0 +54473-3 0  9991
2    53 047.2765 293.0019 0098182 049.5287 311.4011 12.17241281667221
Epoch (UTC): 06 June 2020 10:10:03
Eccentricity: 0.0098182
inclination: 47.2765°
perigee height: 1526 km
apogee height: 1683 km
right ascension of ascending node: 293.0019°
argument of perigee: 49.5287°
revolutions per day: 12.17241281
mean anomaly at epoch: 311.4011°
orbit number at epoch: 66722

The dashed part of the orbit path shows where the satellite is in the earth's shadow,  

DLR